Location: Boiro
(42.6475°N, 8.8834°W)
Time: 23:50:27
(UTC+01:00)

Altair - Pass Details

Date: 30 November 2021
Orbit: 1501 x 1683 km, 47.2° (Epoch: 18 January)

Event Time Altitude Azimuth Distance (km) Brightness Sun altitude
Rises 02:40:26 0° 288° (WNW) 4,637 - -63.6°
Reaches altitude 10° 02:45:02 10° 268° (W) 3,659 - -63.1°
Maximum altitude 02:49:52 16° 235° (SW) 3,247 - -62.4°
Drops below altitude 10° 02:54:46 10° 203° (SSW) 3,694 - -61.7°
Sets 02:59:30 0° 182° (S) 4,704 - -61.1°
